Dumas, TX

9:14 PM CDT on June 28, 2017 (GMT -0500)
Moore County

Weather History for KDUX - January, 2013

Change the Weather History Date:

Thursday, January 3, 2013

  Actual Average (KDHT) Record (KDHT)
Temperature  
Mean Temperature 24 °F -  
Max Temperature 33 °F 47 °F 75 °F (1997)
Min Temperature 15 °F 20 °F -18 °F (1959)
Degree Days  
Heating Degree Days 41    
Moisture  
Dew Point 15 °F    
Average Humidity 72    
Maximum Humidity 86    
Minimum Humidity 52    
Precipitation  
Precipitation 0.00 in - - ()
Sea Level Pressure  
Sea Level Pressure 30.35 in    
Wind  
Wind Speed 7 mph (West)    
Max Wind Speed 12 mph    
Max Gust Speed -    
Visibility 10 miles    
Events      
Averages and records for this station are not official NWS values.
T = Trace of Precipitation, MM = Missing Value Source: NWS Daily Summary

Daily Weather History Graph

Daily Weather History Graph

Search for Another Location

Airport or City:

Trip Planner

Search our weather history database for the weather conditions in past years. The results will help you decide how hot, cold, wet, or windy it might be!

Date:

Astronomy

Jan. 03, 2013 Rise Set
Actual Time 7:58 AM CST 5:47 PM CST
Civil Twilight 7:30 AM CST 6:15 PM CST
Nautical Twilight 6:58 AM CST 6:47 PM CST
Astronomical Twilight 6:27 AM CST 7:18 PM CST
Moon No Moon Rise 11:24 AM CST (1/3)
Length of Visible Light 10h 45m
Length of Day
9h 48m
Waning Gibbous, 65% of the Moon is Illuminated
Jan 3
Waning Gibbous
Jan 4
Last Quarter
Jan 11
New
Jan 18
First Quarter
Jan 26
Full

Hourly Weather History & Observations

Time (CST) Temp. Windchill Dew Point Humidity Pressure Visibility Wind Dir Wind Speed Gust Speed Precip Events Conditions
12:15 AM 17.6 °F 7.3 °F 12.2 °F 79% 30.32 in 10.0 mi NW 8.1 mph - N/A   Clear
12:35 AM 17.6 °F 8.2 °F 12.2 °F 79% 30.32 in 10.0 mi NW 6.9 mph - N/A   Clear
1:15 AM 17.6 °F 7.3 °F 12.2 °F 79% 30.31 in 10.0 mi NW 8.1 mph - N/A   Clear
1:35 AM 17.6 °F 7.3 °F 12.2 °F 79% 30.31 in 10.0 mi NW 8.1 mph - N/A   Clear
1:55 AM 17.6 °F 7.3 °F 12.2 °F 79% 30.32 in 10.0 mi WNW 8.1 mph - N/A   Clear
2:15 AM 17.6 °F 7.3 °F 10.4 °F 73% 30.32 in 10.0 mi WNW 8.1 mph - N/A   Clear
2:35 AM 15.8 °F 5.1 °F 10.4 °F 79% 30.33 in 10.0 mi WNW 8.1 mph - N/A   Clear
2:55 AM 15.8 °F 5.1 °F 10.4 °F 79% 30.34 in 10.0 mi WNW 8.1 mph - N/A   Clear
3:15 AM 15.8 °F 4.2 °F 10.4 °F 79% 30.34 in 10.0 mi WNW 9.2 mph - N/A   Clear
3:35 AM 17.6 °F 7.3 °F 10.4 °F 73% 30.34 in 10.0 mi WNW 8.1 mph - N/A   Clear
3:55 AM 17.6 °F 8.2 °F 10.4 °F 73% 30.34 in 10.0 mi WNW 6.9 mph - N/A   Clear
4:15 AM 17.6 °F 7.3 °F 10.4 °F 73% 30.34 in 10.0 mi WNW 8.1 mph - N/A   Clear
4:35 AM 17.6 °F 7.3 °F 10.4 °F 73% 30.35 in 10.0 mi WNW 8.1 mph - N/A   Clear
4:55 AM 15.8 °F 5.1 °F 10.4 °F 79% 30.35 in 10.0 mi NW 8.1 mph - N/A   Clear
5:15 AM 15.8 °F 5.1 °F 10.4 °F 79% 30.35 in 10.0 mi NW 8.1 mph - N/A   Clear
5:35 AM 15.8 °F 6.1 °F 10.4 °F 79% 30.36 in 10.0 mi WNW 6.9 mph - N/A   Clear
5:55 AM 17.6 °F 7.3 °F 10.4 °F 73% 30.36 in 10.0 mi WNW 8.1 mph - N/A   Clear
6:15 AM 17.6 °F 7.3 °F 10.4 °F 73% 30.36 in 10.0 mi WNW 8.1 mph - N/A   Clear
6:35 AM 17.6 °F 9.3 °F 10.4 °F 73% 30.36 in 10.0 mi WNW 5.8 mph - N/A   Clear
6:55 AM 17.6 °F 7.3 °F 12.2 °F 79% 30.36 in 10.0 mi WNW 8.1 mph - N/A   Clear
7:15 AM 17.6 °F 7.3 °F 12.2 °F 79% 30.37 in 10.0 mi WNW 8.1 mph - N/A   Clear
7:35 AM 15.8 °F 7.2 °F 10.4 °F 79% 30.38 in 10.0 mi NW 5.8 mph - N/A   Clear
7:55 AM 15.8 °F 6.1 °F 10.4 °F 79% 30.38 in 10.0 mi NW 6.9 mph - N/A   Clear
8:15 AM 15.8 °F 6.1 °F 10.4 °F 79% 30.39 in 10.0 mi NW 6.9 mph - N/A   Clear
8:35 AM 17.6 °F 7.3 °F 10.4 °F 73% 30.39 in 10.0 mi WNW 8.1 mph - N/A   Clear
8:55 AM 17.6 °F 8.2 °F 10.4 °F 73% 30.39 in 10.0 mi NW 6.9 mph - N/A   Clear
9:35 AM 21.2 °F 12.6 °F 14.0 °F 74% 30.40 in 10.0 mi NNW 6.9 mph - N/A   Clear
9:55 AM 23.0 °F 13.1 °F 14.0 °F 68% 30.40 in 10.0 mi North 9.2 mph - N/A   Clear
10:15 AM 23.0 °F 13.1 °F 15.8 °F 74% 30.41 in 10.0 mi North 9.2 mph - N/A   Clear
10:35 AM 26.6 °F 19.1 °F 17.6 °F 69% 30.41 in 10.0 mi North 6.9 mph - N/A   Clear
10:55 AM 26.6 °F 20.0 °F 17.6 °F 69% 30.42 in 10.0 mi NNE 5.8 mph - N/A   Clear
11:15 AM 28.4 °F 21.2 °F 17.6 °F 64% 30.42 in 10.0 mi NNE 6.9 mph - N/A   Clear
11:35 AM 26.6 °F 21.2 °F 17.6 °F 69% 30.41 in 10.0 mi NNE 4.6 mph - N/A   Clear
11:55 AM 28.4 °F 22.2 °F 17.6 °F 64% 30.40 in 10.0 mi NNE 5.8 mph - N/A   Clear
12:15 PM 28.4 °F 22.2 °F 19.4 °F 69% 30.39 in 10.0 mi NE 5.8 mph - N/A   Clear
12:35 PM 30.2 °F 26.7 °F 17.6 °F 60% 30.39 in 10.0 mi NNE 3.5 mph - N/A   Clear
12:55 PM 30.2 °F - 17.6 °F 60% 30.38 in 10.0 mi Calm Calm - N/A   Clear
1:15 PM 30.2 °F 25.4 °F 17.6 °F 60% 30.37 in 10.0 mi East 4.6 mph - N/A   Clear
1:35 PM 32.0 °F 28.7 °F 17.6 °F 55% 30.36 in 10.0 mi SSE 3.5 mph - N/A   Clear
1:55 PM 32.0 °F - 17.6 °F 55% 30.35 in 10.0 mi Calm Calm - N/A   Clear
2:15 PM 32.0 °F - 17.6 °F 55% 30.35 in 10.0 mi Calm Calm - N/A   Clear
2:35 PM 32.0 °F 27.5 °F 17.6 °F 55% 30.34 in 10.0 mi SW 4.6 mph - N/A   Clear
2:55 PM 32.0 °F - 17.6 °F 55% 30.34 in 10.0 mi Calm Calm - N/A   Clear
3:15 PM 32.0 °F 28.7 °F 17.6 °F 55% 30.33 in 10.0 mi WSW 3.5 mph - N/A   Clear
3:35 PM 33.8 °F 30.8 °F 17.6 °F 52% 30.33 in 10.0 mi SSW 3.5 mph - N/A   Clear
3:55 PM 33.8 °F 29.6 °F 17.6 °F 52% 30.33 in 10.0 mi SW 4.6 mph - N/A   Clear
4:15 PM 33.8 °F 29.6 °F 19.4 °F 56% 30.33 in 10.0 mi SW 4.6 mph - N/A   Clear
4:35 PM 33.8 °F 29.6 °F 17.6 °F 52% 30.32 in 10.0 mi SSW 4.6 mph - N/A   Clear
4:55 PM 33.8 °F 27.0 °F 19.4 °F 56% 30.32 in 10.0 mi WNW 8.1 mph - N/A   Clear
5:15 PM 32.0 °F 25.6 °F 19.4 °F 60% 30.32 in 10.0 mi West 6.9 mph - N/A   Clear
5:35 PM 32.0 °F 24.8 °F 21.2 °F 64% 30.32 in 10.0 mi West 8.1 mph - N/A   Clear
5:55 PM 30.2 °F 23.4 °F 21.2 °F 69% 30.32 in 10.0 mi West 6.9 mph - N/A   Clear
6:15 PM 28.4 °F 22.2 °F 21.2 °F 74% 30.33 in 10.0 mi West 5.8 mph - N/A   Clear
6:35 PM 28.4 °F 22.2 °F 21.2 °F 74% 30.32 in 10.0 mi West 5.8 mph - N/A   Clear
6:55 PM 26.6 °F 20.0 °F 21.2 °F 80% 30.33 in 10.0 mi WSW 5.8 mph - N/A   Clear
7:15 PM 26.6 °F 21.2 °F 21.2 °F 80% 30.33 in 10.0 mi West 4.6 mph - N/A   Clear
7:35 PM 26.6 °F 20.0 °F 19.4 °F 74% 30.32 in 10.0 mi WSW 5.8 mph - N/A   Clear
7:55 PM 26.6 °F 20.0 °F 19.4 °F 74% 30.31 in 10.0 mi West 5.8 mph - N/A   Clear
8:15 PM 24.8 °F 16.9 °F 19.4 °F 80% 30.32 in 10.0 mi West 6.9 mph - N/A   Clear
8:35 PM 23.0 °F 15.8 °F 17.6 °F 80% 30.32 in 10.0 mi SSW 5.8 mph - N/A   Clear
8:55 PM 21.2 °F 11.7 °F 15.8 °F 80% 30.32 in 10.0 mi South 8.1 mph - N/A   Clear
9:15 PM 21.2 °F 12.6 °F 17.6 °F 86% 30.32 in 10.0 mi SSW 6.9 mph - N/A   Clear
9:35 PM 23.0 °F 13.9 °F 17.6 °F 80% 30.33 in 10.0 mi SW 8.1 mph - N/A   Clear
9:55 PM 21.2 °F 11.7 °F 17.6 °F 86% 30.32 in 10.0 mi SSW 8.1 mph - N/A   Clear
10:15 PM 21.2 °F 10.9 °F 17.6 °F 86% 30.33 in 10.0 mi SSW 9.2 mph - N/A   Clear
10:35 PM 23.0 °F 13.1 °F 17.6 °F 80% 30.34 in 10.0 mi SSW 9.2 mph - N/A   Clear
10:55 PM 23.0 °F 11.7 °F 17.6 °F 80% 30.34 in 10.0 mi SSW 11.5 mph - N/A   Clear
11:15 PM 23.0 °F 12.4 °F 17.6 °F 80% 30.34 in 10.0 mi SSW 10.4 mph - N/A   Clear
11:35 PM 23.0 °F 12.4 °F 17.6 °F 80% 30.33 in 10.0 mi SW 10.4 mph - N/A   Clear
11:55 PM 23.0 °F 12.4 °F 17.6 °F 80% 30.33 in 10.0 mi SW 10.4 mph - N/A   Clear